Location: Shrewton
(51.1833°N, 1.9000°W)
Time: 14:55:00
(UTC+00:00)

Daily predictions for brighter satellites

Satellite Brightness Start Highest point End
(mag) Time Altitude Azimuth Time Altitude Azimuth Time Altitude Azimuth
USA 267 4.0 16:33:13 10° ENE 16:39:16 38° SE 16:45:16 10° SSW
YAOGAN 6 4.1 16:36:15 10° S 16:39:44 43° W 16:43:17 10° NNW
SMAP 3.5 16:38:14 10° SE 16:42:33 39° ENE 16:46:54 10° N
Cosmos 1743 Rocket 3.5 16:40:16 10° N 16:44:35 63° ENE 16:48:52 10° SSE
Cosmos 2333 Rocket 4.1 16:43:00 10° N 16:45:36 13° NNE 16:48:13 10° NE
Meteor 1-25 Rocket 4.2 16:40:34 10° N 16:46:06 62° ENE 16:51:40 10° SSE
Cosmos 2278 4.1 16:42:11 10° NNW 16:47:37 42° NE 16:53:01 10° ESE
Cosmos 1763 Rocket 3.6 16:43:16 10° S 16:48:14 58° ESE 16:53:17 10° NNE
Cosmos 2026 Rocket 4.2 16:42:58 10° N 16:48:53 47° ENE 16:54:43 10° SE
Cosmos 1602 4.0 16:45:49 10° N 16:49:33 44° ENE 16:53:16 10° SSE
ARGOS 4.3 16:45:36 10° ESE 16:49:33 21° NE 16:53:29 10° N
SL-16 R/B 4.3 16:49:39 10° NW 16:51:45 12° NNW 16:53:51 10° N
Cosmos 44 Rocket 3.9 16:47:35 10° NNW 16:52:14 37° NE 16:56:43 10° ESE
SJ 16-02 4.3 16:49:42 10° NW 16:52:54 20° W 16:56:06 10° SW
NOAA 11 4.4 16:48:59 10° S 16:54:25 78° WSW 16:59:53 10° NNW
USA 229 DEB 4.4 16:47:49 10° NW 16:55:02 68° SW 17:02:44 10° SSE
Cosmos 1833 Rocket 2.9 16:49:35 10° S 16:55:05 57° ESE 17:00:36 10° NE
USA 229 4.4 16:47:54 10° NW 16:55:08 68° SW 17:02:49 10° SSE
SeaSat 1 3.3 16:50:44 10° NNE 16:55:28 47° NW 17:00:10 10° WSW
Cosmos 1666 Rocket 4.5 16:51:53 10° N 16:55:42 27° ENE 16:59:28 10° SE
Cosmos 841 Rocket 4.2 16:52:09 10° SSE 16:56:44 33° ESE 17:01:19 10° NE
CZ-2C R/B 2.9 16:52:40 10° SSE 16:57:31 87° ENE 17:02:18 10° NNW
Okean O Rocket 3.0 16:56:18 10° ESE 16:59:26 19° ENE 17:02:34 10° NNE
USA 306 3.1 16:55:25 10° WNW 16:59:38 58° N 17:03:35 11° E
Cosmos 1937 Rocket 3.5 16:55:18 10° NNW 17:00:40 84° ENE 17:06:00 10° SSE
Cosmos 1809 Rocket 4.4 16:54:58 10° N 17:01:04 63° ENE 17:07:04 10° SSE
Cosmos 2219 Rocket 4.1 16:59:49 10° N 17:02:17 13° NNE 17:04:44 10° NE
H-2A R/B 2.5 16:58:14 10° SE 17:02:49 35° ENE 17:07:21 10° N
ISS -2.8 16:59:40 10° W 17:02:58 48° SSW 17:06:15 10° SE
Cosmos 1939 Rocket 2.9 16:59:52 10° SSE 17:03:54 61° ENE 17:07:56 10° N
COSMOS 2406 3.5 16:58:42 10° S 17:04:15 53° ESE 17:09:49 10° NE
ATLAS 2AS CENTAUR R/B 3.9 16:57:32 10° WNW 17:04:23 33° N 17:10:36 11° NE
Cosmos 1606 3.9 17:01:49 10° SSW 17:05:25 43° WNW 17:09:06 10° N
Cosmos 372 Rocket 4.0 17:00:15 10° NNW 17:05:28 63° ENE 17:10:40 10° SE
Cosmos 1125 Rocket 4.5 17:02:14 10° N 17:06:34 25° NE 17:10:55 10° ESE
CZ-2C R/B 3.9 17:03:22 10° NE 17:07:01 19° E 17:10:38 10° SE
Cosmos 1500 3.3 17:05:49 10° N 17:09:27 47° ENE 17:13:04 10° SSE
Cosmos 1500 Rocket 4.0 17:07:53 10° NNW 17:12:18 67° W 17:16:40 10° S
USA 234 3.3 17:08:15 10° ESE 17:14:49 87° SSW 17:21:24 10° WNW
Sich 1 2.9 17:12:47 10° N 17:17:05 68° ENE 17:21:23 10° SSE
Cosmos 1782 3.1 17:13:28 10° SSE 17:17:17 45° E 17:21:07 10° NNE
Cosmos 2221 3.6 17:13:24 10° SSW 17:17:31 45° WNW 17:21:41 10° N
SL-08 R/B 3.5 17:14:02 10° NNE 17:18:45 74° WNW 17:23:21 10° SSW
USA 307 3.0 17:15:04 10° WNW 17:19:17 59° N 17:22:25 17° E
CZ-2D R/B 3.6 17:15:42 10° SE 17:19:19 42° ENE 17:22:57 10° N
CZ-4B R/B 3.5 17:16:52 10° SE 17:21:52 40° ENE 17:26:48 10° N
ATLAS 5 CENTAUR R/B 2.9 17:13:55 10° WNW 17:23:51 51° NNE 17:26:27 17° E
Cosmos 1805 Rocket 3.6 17:20:05 10° NNW 17:24:26 82° W 17:28:47 10° S
NOAA 6 4.0 17:19:42 10° SSE 17:24:51 88° ENE 17:30:01 10° NNW
SL-24 R/B - RUBIN 2 4.1 17:22:39 10° NW 17:27:12 63° SW 17:31:28 10° SSE
PAYLOAD B 4.2 17:22:29 10° SSE 17:28:00 62° ENE 17:33:32 10° N
ERBS 3.4 17:26:40 10° WNW 17:29:31 28° N 17:30:53 21° NE
deb Chang Zheng 4 4.0 17:27:54 10° SE 17:31:53 37° ENE 17:35:52 10° N
Cosmos 2360 Rocket 3.3 17:30:42 10° NNW 17:35:21 25° NE 17:37:21 21° ENE
Lacrosse 5 rocket 1.1 17:32:13 10° WNW 17:36:05 78° NNE 17:39:14 16° ESE
Cosmos 540 Rocket 3.4 17:31:11 10° SSW 17:36:17 85° ESE 17:41:12 11° NNE
ATLAS CENTAUR R/B 3.6 17:35:15 10° WNW 17:38:20 18° NNW 17:41:01 12° NNE
Cosmos 1666 2.6 17:34:54 10° N 17:38:35 56° ENE 17:42:13 10° SSE
USA 308 2.9 17:37:42 10° WNW 17:41:56 64° N 17:44:08 27° E
Meteor 2-16 Rocket 4.4 17:41:54 10° N 17:48:02 74° ENE 17:54:10 10° SSE
Meteor 1-11 Rocket 4.1 17:45:48 10° N 17:51:04 39° ENE 17:56:25 10° SE
COSMOS 2428 4.3 17:48:03 10° N 17:51:40 17° NNE 17:52:06 17° NNE
Meteor 1-26 Rocket 4.4 17:45:47 10° S 17:51:48 90° WNW 17:57:54 10° NNE
COSMOS 2455 2.8 17:46:18 10° SSW 17:52:20 80° SE 17:56:39 20° NE
PSLV R/B 3.9 17:51:03 10° S 17:54:44 71° WSW 17:58:31 10° NNW
CZ-4 R/B 3.5 17:59:19 13° NNE 17:59:19 13° NNE 17:59:56 10° N
Cosmos 2322 Rocket 2.5 17:51:38 10° NNW 17:57:06 44° NE 18:00:16 23° ESE
Cosmos 1814 Rocket 3.9 17:52:32 10° S 17:57:41 64° ESE 18:00:57 22° NE
Cosmos 921 Rocket 3.8 17:54:27 10° SSE 17:57:55 30° ESE 17:57:55 30° ESE
Cosmos 1570 Rocket 4.0 17:53:41 10° S 17:58:48 57° ESE 18:01:47 25° NE
Cosmos 2298 Rocket 4.0 17:55:17 10° NNW 18:00:36 63° ENE 18:05:53 10° SE
SL-08 RB Rocket 4.0 17:56:46 10° SE 18:01:09 44° ENE 18:05:32 10° N
COSMO-SKYMED 1 2.8 17:59:54 32° NE 18:01:27 45° E 18:05:38 10° S
Cosmos 1980 Rocket 3.1 17:56:12 10° NW 18:01:41 51° WSW 18:07:06 10° S
CZ-4C R/B 3.3 17:55:18 10° NW 18:02:22 70° SW 18:10:40 10° SSE
Cosmos 1356 Rocket 3.9 18:00:36 10° N 18:04:07 39° NE 18:04:07 39° NE
Cosmos 1633 Rocket 3.0 18:01:41 10° NNW 18:06:05 84° W 18:10:28 10° S
Cosmos 1812 2.6 18:03:32 10° S 18:07:23 86° W 18:09:54 21° N
USA 305 2.8 18:03:10 10° WNW 18:07:27 76° NNE 18:08:38 45° E
Cosmos 2142 Rocket 4.4 18:05:46 10° S 18:11:56 88° E 18:18:14 10° N
Feng Yun 1-1 Rocket 4.4 18:06:43 10° SE 18:12:29 57° ENE 18:18:11 10° N
YAOGAN 1 3.5 18:14:04 31° NNE 18:14:04 31° NNE 18:16:43 10° N
Cosmos 1818 3.7 18:08:30 10° NW 18:14:00 75° SW 18:19:26 10° SSE
CZ-4 R/B 4.3 18:10:08 10° SSE 18:14:15 74° ENE 18:18:24 10° N
Cosmos 1151 Rocket 3.0 18:10:05 10° S 18:14:26 84° W 18:17:49 17° N
Cosmos 2279 Rocket 3.9 18:08:58 10° S 18:15:11 88° E 18:21:26 10° N
SL-16 R/B 2.1 18:10:41 10° NNW 18:16:23 71° ENE 18:21:04 15° SE
Cosmos 2266 Rocket 4.0 18:10:22 10° N 18:16:45 67° ENE 18:23:08 10° SSE
Cosmos 2237 Rocket 4.1 18:15:42 10° N 18:17:59 13° NNE 18:17:59 13° NNE
Cosmos 2082 Rocket 2.3 18:15:38 10° SW 18:21:19 74° WNW 18:24:53 24° NNE
USA 267 3.2 18:19:25 32° ENE 18:22:43 87° NNW 18:29:17 10° WSW
Landsat 5 4.1 18:25:10 39° SSE 18:25:10 39° SSE 18:27:57 10° S
SKYMED 3 4.4 18:24:19 44° NNE 18:25:39 78° ESE 18:29:59 10° S
ARGOS 3.2 18:23:49 10° SSE 18:29:14 80° WSW 18:34:41 10° NNW
Cosmos 1933 Rocket 3.7 18:27:02 10° N 18:30:32 53° NNE 18:30:32 53° NNE
GEOS 3 Rocket 3.5 18:30:35 49° E 18:31:50 66° NE 18:36:59 10° NW
Cosmos 2333 Rocket 3.1 18:26:40 10° NNW 18:31:06 31° NNE 18:31:06 31° NNE
Meteor 2-15 4.3 18:26:09 10° S 18:32:14 76° E 18:38:20 10° NNE
Cosmos 44 Rocket 4.0 18:29:10 10° NW 18:33:58 52° WSW 18:38:14 12° SSE
Okean O Rocket 1.9 18:30:54 10° S 18:35:20 68° WSW 18:39:48 10° NNW
Cosmos 2208 Rocket 4.0 18:30:06 10° SSW 18:35:31 89° ESE 18:37:42 38° NNE
Cosmos 2150 Rocket 4.1 18:31:54 10° NNW 18:37:04 77° WSW 18:42:18 10° SSE
Cosmos 1470 Rocket 3.8 18:32:46 10° NNW 18:37:13 70° W 18:41:40 10° S
Cosmos 1328 Rocket 3.8 18:33:56 10° SSW 18:38:21 69° WNW 18:40:29 30° N
Cosmos 841 Rocket 4.5 18:33:35 10° SW 18:38:30 43° WNW 18:41:52 19° N
SL-16 R/B 4.4 18:37:20 10° N 18:38:38 11° N 18:38:38 11° N
ISS -0.7 18:37:38 10° WSW 18:39:11 13° SW 18:40:44 10° SSW
Cosmos 1833 Rocket 4.1 18:34:15 10° WSW 18:39:20 33° NW 18:43:03 17° N
USA 306 2.8 18:35:25 10° WNW 18:39:36 83° WSW 18:39:36 83° WSW
H-2A R/B 3.3 18:37:26 10° SSW 18:42:14 39° W 18:46:57 10° NNW
MOS 1-B Rocket 4.4 18:41:11 10° N 18:47:01 66° WNW 18:53:35 10° SSW
CZ-2C R/B 2.7 18:44:29 22° N 18:47:54 73° WNW 18:53:02 10° SSW
Cosmos 2219 Rocket 3.4 18:43:01 10° NNW 18:46:30 28° NNE 18:46:30 28° NNE
Cosmos 1125 Rocket 3.8 18:43:54 10° NNW 18:49:08 67° WSW 18:54:21 10° SSE
SKYMED 2 3.9 18:48:31 46° NNW 18:49:36 64° WNW 18:53:52 10° SSW
USA 32 4.1 18:45:03 10° S 18:49:26 60° SE 18:49:26 60° SE
ATLAS CENTAUR R/B 2.6 18:47:47 10° WSW 18:54:28 52° NNW 18:54:28 52° NNW
NOSS 3-4 (A) 4.0 18:48:07 10° NW 18:54:32 48° NNE 18:55:00 47° NE
NOSS 3-4 (C) 4.0 18:48:13 10° NW 18:54:38 48° NNE 18:55:05 47° NE
ATLAS 2AS CENTAUR R/B 3.5 18:50:30 10° NW 18:57:22 36° NNE 18:58:02 35° NNE
Spot 2 4.5 18:54:14 24° SSE 18:57:23 82° WSW 19:02:30 10° NNW
Meteor 1-27 Rocket 3.9 18:52:22 10° S 18:56:41 54° SSE 18:56:41 54° SSE
Cosmos 1900 4.3 18:53:04 10° SW 18:57:56 75° NW 18:57:56 75° NW
USA 307 3.5 18:55:04 10° WNW 18:58:27 54° W 18:58:27 54° W
Lacrosse 5 rocket 3.3 19:11:37 10° WNW 19:14:51 25° SW 19:14:51 25° SW
Cosmos 2237 4.3 19:10:53 10° NNW 19:16:36 71° WSW 19:17:01 68° SSW
ATLAS CENTAUR R/B 4.1 19:15:54 10° NNW 19:17:07 14° NNW 19:17:07 14° NNW
Cosmos 2360 Rocket 2.4 19:14:22 10° NNW 19:19:09 64° NW 19:19:09 64° NW
COSMOS 2428 4.3 19:31:45 10° NNW 19:34:07 24° NNW 19:34:07 24° NNW
COSMOS 2455 4.2 19:33:32 10° W 19:38:54 32° NNW 19:39:49 31° NNW
Cosmos 2322 Rocket 3.3 19:35:50 10° NW 19:41:09 41° WSW 19:42:10 38° SW
SL-16 R/B 4.2 19:55:34 10° NW 19:59:58 24° WSW 20:03:05 15° SW
USA 267 3.9 20:06:46 49° NW 20:06:46 49° NW 20:11:53 10° W
Cosmos 2082 Rocket 4.2 20:02:11 10° W 20:06:24 21° NW 20:06:45 21° NNW
Cosmos 2333 Rocket 4.1 20:10:50 10° NW 20:13:07 25° NW 20:13:07 25° NW
ATLAS 2AS CENTAUR R/B 4.3 20:42:03 10° NW 20:45:28 29° NW 20:45:28 29° NW
